Regional Weather Roundup
Issued by NWS Memphis, TN

Home | Current Version | Previous Version | Text Only | Print | Product List | Glossary On
Versions: 1 2 3 4 5 6 7 8 9 10 11 12 13 14 15 16 17 18 19 20 21 22 23 24 25 26 27 28 29 30 31 32 33 34 35 36 37 38 39 40 41 42 43 44 45 46 47 48 49 50
000
ASUS44 KMEG 250010
RWRMEG
MEMPHIS CWA HOURLY WEATHER ROUNDUP
NATIONAL WEATHER SERVICE MEMPHIS TN
700 PM CDT FRI APR 24 2015

...WEST TENNESSEE...

CITY           SKY/WX    TMP DP  RH WIND       PRES   REMARKS
MEMPHIS INTL   LGT RAIN  57  53  86 SE8       29.84F
6HR MIN TEMP:  57; 6HR MAX TEMP:  67; 6HR PCP:  0.31;

NWS MEMPHIS      N/A     56 N/A N/A MISG        N/A
JACKSON        LGT RAIN  55  51  86 VRB3      29.88F
6HR MIN TEMP:  55; 6HR MAX TEMP:  67; 6HR PCP:  0.06;

LEXINGTON      PTCLDY    55  52  88 SE6       29.89F
SAVANNAH       MOCLDY    55  32  41 CALM      29.91F
DYERSBURG      CLOUDY    55  39  54 SE5       29.88F
6HR MIN TEMP:  55; 6HR MAX TEMP:  59;

UNION CITY     MOCLDY    55  32  41 SE13      29.85F
PARIS          MOCLDY    54  46  76 N7        29.92S


...EASTERN ARKANSAS...

CITY           SKY/WX    TMP DP  RH WIND       PRES   REMARKS
JONESBORO      CLOUDY    55  54  96 SE8       29.86F
6HR MIN TEMP:  53; 6HR MAX TEMP:  58; 6HR PCP:  0.08;

WEST MEMPHIS   FOG       56  55  97 SE9       29.84F VSB 1/4
6HR MIN TEMP:  56; 6HR MAX TEMP:  63; 6HR PCP:  0.25;

BATESVILLE     CLOUDY    55  54  94 SE6       29.83F
6HR MIN TEMP:  54; 6HR MAX TEMP:  55; 6HR PCP:  0.10;

NEWPORT        LGT RAIN  56  55  96 S8        29.88F
6HR MIN TEMP:  56; 6HR MAX TEMP:  58; 6HR PCP:  0.10;

WALNUT RIDGE   CLOUDY    55  48  76 SE12      29.85F
6HR MIN TEMP:  50; 6HR MAX TEMP:  55; 6HR PCP:  0.12;

BLYTHEVILLE    LGT RAIN  56  54  93 CALM      29.86F
6HR MIN TEMP:  56; 6HR MAX TEMP:  61; 6HR PCP:  0.03;

SEARCY         RAIN      57  56  96 S7        29.87F FOG
6HR MIN TEMP:  56; 6HR MAX TEMP:  57; 6HR PCP:  0.54;

STUTTGART      CLOUDY    57  54  88 E6        29.86F
6HR MIN TEMP:  57; 6HR MAX TEMP:  59; 6HR PCP:  0.29;

PINE BLUFF     LGT RAIN  59  58  96 E6        29.84F FOG
6HR MIN TEMP:  58; 6HR MAX TEMP:  60; 6HR PCP:  0.70;

MONTICELLO     CLOUDY    61  60  97 NE10      29.80F
6HR MIN TEMP:  59; 6HR MAX TEMP:  62; 6HR PCP:  0.40;



...NORTH MISSISSIPPI...

CITY           SKY/WX    TMP DP  RH WIND       PRES   REMARKS
TUPELO         LGT RAIN  62  54  74 E5        29.88F
6HR MIN TEMP:  62; 6HR MAX TEMP:  68; 6HR PCP:  0.01;

OXFORD         CLOUDY    55  54  94 NE6       29.90R FOG
OLIVE BRANCH   RAIN      54  54 100 SE9       29.88S FOG
TUNICA         LGT RAIN  55  54  94 SE13      29.87F
CLARKSDALE       N/A     57  57 100 E12       29.85F
CORINTH        CLOUDY    57  54  88 E6        29.88F
GREENWOOD      CLOUDY    67  59  75 VRB3      29.83F
6HR MIN TEMP:  64; 6HR MAX TEMP:  69; 6HR PCP:  0.01;

COLUMBUS       CLOUDY    66  56  70 SE3       29.89R
6HR MIN TEMP:  66; 6HR MAX TEMP:  70; 6HR PCP: TRACE;

STARKVILLE     CLOUDY    64  55  72 SE3       29.89R
GOLDEN TRIANGL MOCLDY    68  52  56 SE9       29.89F


...SOUTHEAST MISSOURI...

CITY           SKY/WX    TMP DP  RH WIND       PRES   REMARKS
WEST PLAINS    CLOUDY    52  47  83 SE10      29.82F
6HR MIN TEMP:  50; 6HR MAX TEMP:  54; 6HR PCP: TRACE;

POPLAR BLUFF   CLOUDY    56  48  74 SE3       29.85F
6HR MIN TEMP:  52; 6HR MAX TEMP:  56; 6HR PCP:  0.01;

CAPE GIRARDEAU CLOUDY    56  50  80 SE8       29.85F
6HR MIN TEMP:  52; 6HR MAX TEMP:  61; 6HR PCP:  0.02;



...NORTHWEST ALABAMA...

CITY           SKY/WX    TMP DP  RH WIND       PRES   REMARKS
MUSCLE SHOALS  CLOUDY    64  45  49 CALM      29.94F
6HR MIN TEMP:  63; 6HR MAX TEMP:  69;



...MIDDLE TENNESSEE...

CITY           SKY/WX    TMP DP  RH WIND       PRES   REMARKS
NASHVILLE      CLOUDY    63  38  39 CALM      29.96S
6HR MIN TEMP:  62; 6HR MAX TEMP:  67; 6HR PCP: TRACE;

CLARKSVILLE    CLOUDY    58  43  57 SE6       29.91F
6HR MIN TEMP:  58; 6HR MAX TEMP:  65; 6HR PCP: TRACE;

COLUMBIA       CLOUDY    55  32  41 CALM      29.94F


...WESTERN KENTUCKY...

CITY           SKY/WX    TMP DP  RH WIND       PRES   REMARKS
PADUCAH        CLOUDY    59  42  53 SE5       29.87F
6HR MIN TEMP:  57; 6HR MAX TEMP:  63; 6HR PCP: TRACE;

FORT CAMPBELL  PTCLDY    60  40  48 SE6       29.90F
6HR MIN TEMP:  60; 6HR MAX TEMP:  65; 6HR PCP: TRACE;



...CENTRAL ARKANSAS...

CITY           SKY/WX    TMP DP  RH WIND       PRES   REMARKS
LITTLE ROCK    RAIN      59  55  88 SE10      29.84F FOG
6HR MIN TEMP:  58; 6HR MAX TEMP:  60; 6HR PCP:  0.74;



SKY/WX REPORTED AS FAIR MEANS FEW OR NO CLOUDS BELOW
12 THOUSAND FEET.



USA.gov is the U.S. government's official web portal to all federal, state and local government web resources and services.